{"data":{"norad_id":55422,"intl_designator":"2023-014AH","name":"STARLINK-5006","alt_names":[],"object_type":"PAYLOAD","status":"ACTIVE","operator":null,"country":"US","launch_date":"2023-01-31","launch_site_code":"AFWTR","launch_vehicle":null,"mission":null,"orbit_class":"UNKNOWN","rcs_meters":null,"size_class":null,"mass_kg":null,"dimensions":null,"purposes":["comms"],"wikipedia_slug":null,"has_3d_model":false,"image_url":null,"decayed_at":null,"tle_current":{"epoch":"2026-09-20T22:00:03.000096Z","epoch_age_seconds":60572,"freshness":"FRESH","line1":"1 55422U 23014AH  26263.91670139  .00089563  00000+0  62688-2 0  9995","line2":"2 55422  70.0005 312.0162 0002520 241.5745 357.7145 15.04745198  5667","mean_motion":15.04745198,"eccentricity":0.000252,"inclination_deg":70.0005,"raan_deg":312.0162,"arg_perigee_deg":241.5745,"mean_anomaly_deg":357.7145,"bstar":0.0062688,"rev_number":566,"period_min":95.697265019616,"perigee_km":550.54146799411,"apogee_km":554.03440216139,"semimajor_km":6930.4249350778,"source":"CELESTRAK","updated_at":"2026-09-21T09:00:33.220105Z"}}}